weather.gov     
National Weather Service

Regional Weather Roundup
NWS Homepage
This page is being discontinued on March 12, 2014.
The same data is available at this site. Please update your bookmarks.
Thank you, and we apologize for the inconvenience.
Please send an email to SR-SRH.Webmaster@noaa.gov with any concerns.


Current Version
Previous Version:    01  02  03  04  05  06  07  08  09  10  11  12  13  14  15  16  17  18  19  20  21  22  23  24  25  26  27  28  29  30  
   31  32  33  34  35  36  37  38  39  40  41  42  43  44  45  46  47  48  49  50  51  52  53  54  55  56  57  58  59  60  
[Printable]
279
ASUS44 KMEG 172110
RWRTN
TENNESSEE HOURLY STATE WEATHER ROUNDUP
NATIONAL WEATHER SERVICE MEMPHIS TN
400 PM CDT WED SEP 17 2014

TNZ002-004-019-021-049-052-054-088>092-172200-
WEST TENNESSEE

CITY           SKY/WX    TMP DP  RH WIND       PRES   REMARKS
MEMPHIS INTL   CLOUDY    75  62  64 VRB3      29.97F
NWS MEMPHIS      N/A     73 N/A N/A MISG        N/A
JACKSON        CLOUDY    69  57  65 W8        29.98F
DYERSBURG      CLOUDY    68  52  56 S5        29.96S
UNION CITY     SUNNY     66  57  72 S3        29.95S
PARIS          SUNNY     66  54  63 SE5       29.96F
HUNTINGDON     CLOUDY    68  55  62 SE6       29.96F
LEXINGTON      SUNNY     70  57  64 E5        29.95F
SAVANNAH       SUNNY     73  52  46 N3        29.98F
$$

TNZ008-025-027-028-033-062-065-066-172200-
NORTH MIDDLE TENNESSEE

CITY           SKY/WX    TMP DP  RH WIND       PRES   REMARKS
NASHVILLE      PTSUNNY   72  55  55 NE3       29.99F
DICKSON        PTSUNNY   70  55  60 CALM      29.99F
PORTLAND       MOSUNNY   68  54  60 VRB3      29.98F
CLARKSVILLE    PTSUNNY   71  53  52 VRB3      29.98S
LEBANON        PTSUNNY   70  54  56 W6        29.98F
SMYRNA         PTSUNNY   71  54  55 N6        30.00S
MURFREESBORO   PTSUNNY   71  54  55 VRB5      29.99S
COOKEVILLE     SUNNY     70  57  64 N6        29.98F
LIVINGSTON     MOSUNNY   69  53  56 N8        29.99F
GALLATIN       PTSUNNY   72  55  54 N6        30.00S
CROSSVILLE     MOSUNNY   71  51  49 N7        30.00S
$$

TNZ061-075-076-078-094-096-097-172200-
SOUTH MIDDLE TENNESSEE

CITY           SKY/WX    TMP DP  RH WIND       PRES   REMARKS
LEWISBURG      PTSUNNY   73  58  59 NW5       29.99F
FAYETTEVILLE   SUNNY     73  54  49 N9        29.98S
TULLAHOMA      SUNNY     73  54  49 N9        30.00S
WINCHESTER     SUNNY     75  55  50 N8        29.98F
MCMINNVILLE    SUNNY     73  59  60 N7        29.99S
COLUMBIA       SUNNY     73  57  56 CALM      29.98F
SHELBYVILLE    SUNNY     75  55  50 N7        30.00S
$$

TNZ017-018-042-046-047-172200-
NORTHEAST TENNESSEE

CITY           SKY/WX    TMP DP  RH WIND       PRES   REMARKS
TRI CITIES     MOSUNNY   77  55  46 NW7       29.94F
ELIZABETHTON   PTCLDY    75  57  53 NW7       29.94S
$$

TNZ012-013-036-069-073-074-172200-
CENTRAL EAST TENNESSEE

CITY           SKY/WX    TMP DP  RH WIND       PRES   REMARKS
KNOXVILLE      MOSUNNY   77  50  38 W6        29.93S
OAK RIDGE      MOSUNNY   79  56  45 VRB3      29.95F
GATLINBURG     PTCLDY    79  55  44 NW5       29.94R
MORRISTOWN     CLEAR     75  57  53 N5        29.96F
$$

TNZ083-085-099-172200-
SOUTHEAST TENNESSEE

CITY           SKY/WX    TMP DP  RH WIND       PRES   REMARKS
CHATTANOOGA    PTSUNNY   79  57  46 N5        29.95S
$$

SKY/WX REPORTED AS FAIR MEANS FEW OR NO CLOUDS BELOW
12 THOUSAND FEET.





U.S. Dept. of Commerce
NOAA National Weather Service
1325 East West Highway
Silver Spring, MD 20910
E-mail: w-nws.webmaster@noaa.gov
Page last modified: May 16, 2007
NATIONAL WEATHER SERVICE: for Safety, for Work, for Fun - FOR LIFE